When you browse on this site, cookies collect data to enhance your experience and personalize the content and advertising you see.
Visit our Privacy Policy to learn more. By continuing to use the site, you agree to this use of cookies and data.
EN

Hourly Weather Sungai Petani

Today, 10 August, Monday

Time Temperature Precipitation Wind Pressure Humidity
00:00 +27°C° 0 mm 1 mps 754 mmHg 88%
01:00 +27°C° 0 mm 1 mps 755 mmHg 88%
02:00 +27°C° 0 mm 1 mps 754 mmHg 89%
03:00 +27°C° 0 mm 1 mps 754 mmHg 90%
04:00 +27°C° 0 mm 1 mps 754 mmHg 91%
05:00 +27°C° 0 mm 1 mps 754 mmHg 91%
06:00 +27°C° 0 mm 1 mps 755 mmHg 90%
07:00 +27°C° 0 mm 1 mps 755 mmHg 88%
08:00 +29°C° 0 mm 1 mps 755 mmHg 81%
09:00 +31°C° 0 mm 1 mps 755 mmHg 74%
10:00 +31°C° 0 mm 0 mps 755 mmHg 67%
11:00 +33°C° 0 mm 1 mps 755 mmHg 64%
12:00 +34°C° 0 mm 1 mps 755 mmHg 61%
13:00 +36°C° 0 mm 2 mps 754 mmHg 58%
14:00 +35°C° 0 mm 2 mps 754 mmHg 61%
15:00 +34°C° 0 mm 2 mps 753 mmHg 65%
16:00 +34°C° 0 mm 2 mps 753 mmHg 69%
17:00 +31°C° 0 mm 2 mps 753 mmHg 74%
18:00 +30°C° 0 mm 1 mps 754 mmHg 79%
19:00 +29°C° 0 mm 1 mps 754 mmHg 83%
20:00 +28°C° 0.1 mm 1 mps 754 mmHg 85%
21:00 +26°C° 0.1 mm 0 mps 755 mmHg 86%
22:00 +26°C° 0.1 mm 0 mps 755 mmHg 87%
23:00 +28°C° 0.2 mm 1 mps 755 mmHg 88%

Tomorrow, 11 August, Tuesday

Time Temperature Precipitation Wind Pressure Humidity
00:00 +27°C° 0.2 mm 1 mps 755 mmHg 89%
01:00 +27°C° 0.2 mm 1 mps 755 mmHg 90%
02:00 +27°C° 0 mm 1 mps 755 mmHg 91%
03:00 +27°C° 0 mm 1 mps 754 mmHg 91%
04:00 +27°C° 0 mm 1 mps 754 mmHg 91%
05:00 +27°C° 0 mm 1 mps 754 mmHg 91%
06:00 +27°C° 0 mm 1 mps 754 mmHg 90%
07:00 +27°C° 0 mm 1 mps 755 mmHg 90%
08:00 +29°C° 0 mm 1 mps 755 mmHg 83%
09:00 +31°C° 0 mm 1 mps 755 mmHg 75%
10:00 +33°C° 0 mm 1 mps 756 mmHg 68%
11:00 +33°C° 0 mm 1 mps 755 mmHg 65%
12:00 +35°C° 0 mm 2 mps 755 mmHg 61%
13:00 +36°C° 0 mm 2 mps 755 mmHg 58%
14:00 +35°C° 0.3 mm 2 mps 754 mmHg 63%
15:00 +34°C° 0.3 mm 2 mps 754 mmHg 67%
16:00 +32°C° 0.3 mm 2 mps 753 mmHg 72%
17:00 +31°C° 0.1 mm 2 mps 753 mmHg 75%
18:00 +30°C° 0.1 mm 1 mps 754 mmHg 78%
19:00 +27°C° 0.1 mm 0 mps 754 mmHg 82%
20:00 +27°C° 0 mm 0 mps 755 mmHg 83%
21:00 +26°C° 0 mm 0 mps 755 mmHg 84%
22:00 +26°C° 0 mm 0 mps 756 mmHg 85%
23:00 +26°C° 0.4 mm 0 mps 756 mmHg 87%

Day after tomorrow, 12 August, Wednesday

Time Temperature Precipitation Wind Pressure Humidity
00:00 +25°C° 0.4 mm 0 mps 756 mmHg 88%
01:00 +25°C° 0.4 mm 0 mps 756 mmHg 89%
02:00 +25°C° 0.6 mm 0 mps 755 mmHg 90%
03:00 +25°C° 0.6 mm 0 mps 755 mmHg 91%
04:00 +25°C° 0.6 mm 0 mps 755 mmHg 92%
05:00 +25°C° 0.5 mm 0 mps 755 mmHg 92%
06:00 +25°C° 0.5 mm 0 mps 755 mmHg 92%
07:00 +27°C° 0.5 mm 1 mps 755 mmHg 92%
08:00 +26°C° 0.8 mm 0 mps 756 mmHg 90%
09:00 +27°C° 0.8 mm 0 mps 756 mmHg 88%
10:00 +27°C° 0.8 mm 0 mps 756 mmHg 86%
11:00 +27°C° 0 mm 0 mps 756 mmHg 86%
12:00 +29°C° 0 mm 1 mps 756 mmHg 85%
13:00 +29°C° 0 mm 1 mps 755 mmHg 85%
14:00 +30°C° 0.1 mm 1 mps 755 mmHg 83%
15:00 +30°C° 0.1 mm 1 mps 754 mmHg 80%
16:00 +28°C° 0.1 mm 0 mps 753 mmHg 78%
17:00 +28°C° 0 mm 0 mps 754 mmHg 80%
18:00 +27°C° 0 mm 0 mps 754 mmHg 83%
19:00 +26°C° 0 mm 0 mps 754 mmHg 85%
20:00 +26°C° 0.1 mm 0 mps 755 mmHg 85%
21:00 +26°C° 0.1 mm 0 mps 756 mmHg 85%
22:00 +26°C° 0.1 mm 0 mps 756 mmHg 85%
23:00 +25°C° 0.1 mm 0 mps 756 mmHg 86%

13 August, Thursday

Time Temperature Precipitation Wind Pressure Humidity
00:00 +27°C° 0.1 mm 1 mps 756 mmHg 87%
01:00 +27°C° 0.1 mm 1 mps 756 mmHg 88%
02:00 +27°C° 0.8 mm 1 mps 755 mmHg 90%
03:00 +26°C° 0.8 mm 1 mps 755 mmHg 92%
04:00 +26°C° 0.8 mm 1 mps 754 mmHg 94%
05:00 +26°C° 0.3 mm 1 mps 754 mmHg 93%
06:00 +26°C° 0.3 mm 1 mps 755 mmHg 93%
07:00 +26°C° 0.3 mm 1 mps 755 mmHg 92%
08:00 +28°C° 0.5 mm 1 mps 755 mmHg 89%
09:00 +29°C° 0.5 mm 1 mps 756 mmHg 85%
10:00 +30°C° 0.5 mm 1 mps 756 mmHg 81%
11:00 +30°C° 1.1 mm 2 mps 756 mmHg 80%
12:00 +31°C° 1.1 mm 3 mps 756 mmHg 79%
13:00 +32°C° 1.1 mm 4 mps 755 mmHg 77%
14:00 +30°C° 1.1 mm 4 mps 755 mmHg 81%
15:00 +29°C° 1.1 mm 4 mps 754 mmHg 84%
16:00 +28°C° 1.1 mm 4 mps 754 mmHg 87%
17:00 +28°C° 0.6 mm 3 mps 754 mmHg 89%
18:00 +27°C° 0.6 mm 3 mps 754 mmHg 91%
19:00 +26°C° 0.6 mm 2 mps 755 mmHg 93%
20:00 +26°C° 0.4 mm 2 mps 755 mmHg 93%
21:00 +26°C° 0.4 mm 2 mps 756 mmHg 93%
22:00 +26°C° 0.4 mm 1 mps 756 mmHg 93%
23:00 +26°C° 0.6 mm 1 mps 756 mmHg 93%

14 August, Friday

Time Temperature Precipitation Wind Pressure Humidity
00:00 +26°C° 0.6 mm 1 mps 756 mmHg 93%
01:00 +26°C° 0.6 mm 1 mps 756 mmHg 94%
02:00 +26°C° 0.4 mm 1 mps 755 mmHg 94%
03:00 +26°C° 0.4 mm 1 mps 755 mmHg 94%
04:00 +25°C° 0.4 mm 1 mps 754 mmHg 95%
05:00 +26°C° 0.9 mm 1 mps 755 mmHg 94%
06:00 +26°C° 0.9 mm 1 mps 755 mmHg 94%
07:00 +24°C° 0.9 mm 0 mps 755 mmHg 94%
08:00 +27°C° 0.5 mm 1 mps 756 mmHg 91%
09:00 +27°C° 0.5 mm 1 mps 756 mmHg 88%
10:00 +28°C° 0.5 mm 1 mps 756 mmHg 85%
11:00 +29°C° 0 mm 2 mps 755 mmHg 82%
12:00 +30°C° 0 mm 2 mps 755 mmHg 78%
13:00 +31°C° 0 mm 2 mps 754 mmHg 75%
14:00 +31°C° 0 mm 2 mps 753 mmHg 71%
15:00 +32°C° 0 mm 1 mps 753 mmHg 68%
16:00 +33°C° 0 mm 1 mps 752 mmHg 64%
17:00 +31°C° 0 mm 1 mps 753 mmHg 70%
18:00 +30°C° 0 mm 2 mps 753 mmHg 77%
19:00 +28°C° 0 mm 2 mps 753 mmHg 83%
20:00 +27°C° 0 mm 1 mps 754 mmHg 83%
21:00 +27°C° 0 mm 1 mps 755 mmHg 84%
22:00 +27°C° 0 mm 1 mps 755 mmHg 85%
23:00 +26°C° 0 mm 1 mps 755 mmHg 86%

15 August, Saturday

Time Temperature Precipitation Wind Pressure Humidity
00:00 +26°C° 0 mm 1 mps 755 mmHg 88%
01:00 +26°C° 0 mm 1 mps 755 mmHg 89%
02:00 +25°C° 0 mm 1 mps 754 mmHg 90%
03:00 +25°C° 0 mm 1 mps 754 mmHg 91%
04:00 +25°C° 0 mm 1 mps 753 mmHg 91%
05:00 +25°C° 0 mm 1 mps 754 mmHg 91%
06:00 +26°C° 0 mm 1 mps 754 mmHg 90%
07:00 +26°C° 0 mm 1 mps 754 mmHg 89%
08:00 +28°C° 0 mm 1 mps 755 mmHg 80%
09:00 +28°C° 0 mm 0 mps 755 mmHg 72%
10:00 +31°C° 0 mm 0 mps 755 mmHg 63%
11:00 +33°C° 0 mm 1 mps 755 mmHg 59%
12:00 +34°C° 0 mm 1 mps 754 mmHg 56%
13:00 +35°C° 0 mm 1 mps 753 mmHg 53%
14:00 +34°C° 0.2 mm 1 mps 753 mmHg 57%
15:00 +34°C° 0.2 mm 2 mps 752 mmHg 61%
16:00 +34°C° 0.2 mm 2 mps 752 mmHg 65%
17:00 +31°C° 0.1 mm 2 mps 753 mmHg 70%
18:00 +30°C° 0.1 mm 1 mps 753 mmHg 76%
19:00 +26°C° 0.1 mm 0 mps 754 mmHg 81%
20:00 +26°C° 0.1 mm 0 mps 754 mmHg 83%
21:00 +25°C° 0.1 mm 0 mps 755 mmHg 84%
22:00 +25°C° 0.1 mm 0 mps 756 mmHg 85%
23:00 +25°C° 0.1 mm 0 mps 755 mmHg 86%
Show more